Year,Month,Day,Hour,Minute,Value (Times are PST for temperature in C)
2009,09,23,00,00,13.60
2009,09,23,00,01,13.60
2009,09,23,00,02,13.60
2009,09,23,00,03,13.60
2009,09,23,00,04,13.60
2009,09,23,00,05,13.60
2009,09,23,00,06,13.60
2009,09,23,00,07,13.60
2009,09,23,00,08,13.60
2009,09,23,00,09,13.70
2009,09,23,00,10,13.70
2009,09,23,00,11,13.70
2009,09,23,00,12,13.70
2009,09,23,00,13,13.70
2009,09,23,00,14,13.80
2009,09,23,00,15,13.80
2009,09,23,00,16,13.90
2009,09,23,00,17,14.00
2009,09,23,00,18,14.00
2009,09,23,00,19,14.00
2009,09,23,00,20,14.00
2009,09,23,00,21,14.00
2009,09,23,00,22,14.00
2009,09,23,00,23,14.00
2009,09,23,00,24,13.90
2009,09,23,00,25,13.90
2009,09,23,00,26,13.90
2009,09,23,00,27,13.90
2009,09,23,00,28,13.80
2009,09,23,00,29,13.70
2009,09,23,00,30,13.70
2009,09,23,00,31,13.70
2009,09,23,00,32,13.70
2009,09,23,00,33,13.70
2009,09,23,00,34,13.60
2009,09,23,00,35,13.60
2009,09,23,00,36,13.60
2009,09,23,00,37,13.60
2009,09,23,00,38,13.60
2009,09,23,00,39,13.60
2009,09,23,00,40,13.60
2009,09,23,00,41,13.60
2009,09,23,00,42,13.60
2009,09,23,00,43,13.50
2009,09,23,00,44,13.50
2009,09,23,00,45,13.50
2009,09,23,00,46,13.50
2009,09,23,00,47,13.50
2009,09,23,00,48,13.50
2009,09,23,00,49,13.40
2009,09,23,00,50,13.40
2009,09,23,00,51,13.40
2009,09,23,00,52,13.30
2009,09,23,00,53,13.30
2009,09,23,00,54,13.30
2009,09,23,00,55,13.20
2009,09,23,00,56,13.20
2009,09,23,00,57,13.20
2009,09,23,00,58,13.10
2009,09,23,00,59,13.10
2009,09,23,01,00,13.10
2009,09,23,01,01,13.10
2009,09,23,01,02,13.10
2009,09,23,01,03,13.10
2009,09,23,01,04,13.10
2009,09,23,01,05,13.10
2009,09,23,01,06,13.00
2009,09,23,01,07,13.00
2009,09,23,01,08,13.00
2009,09,23,01,09,13.00
2009,09,23,01,10,13.10
2009,09,23,01,11,13.00
2009,09,23,01,12,13.00
2009,09,23,01,13,13.00
2009,09,23,01,14,13.00
2009,09,23,01,15,13.00
2009,09,23,01,16,13.00
2009,09,23,01,17,13.00
2009,09,23,01,18,13.00
2009,09,23,01,19,13.00
2009,09,23,01,20,13.00
2009,09,23,01,21,13.00
2009,09,23,01,22,12.90
2009,09,23,01,23,12.90
2009,09,23,01,24,12.90
2009,09,23,01,25,12.80
2009,09,23,01,26,12.80
2009,09,23,01,27,12.70
2009,09,23,01,28,12.60
2009,09,23,01,29,12.60
2009,09,23,01,30,12.50
2009,09,23,01,31,12.50
2009,09,23,01,32,12.50
2009,09,23,01,33,12.50
2009,09,23,01,34,12.50
2009,09,23,01,35,12.50
2009,09,23,01,36,12.50
2009,09,23,01,37,12.50
2009,09,23,01,38,12.40
2009,09,23,01,39,12.40
2009,09,23,01,40,12.30
2009,09,23,01,41,12.30
2009,09,23,01,42,12.30
2009,09,23,01,43,12.30
2009,09,23,01,44,12.30
2009,09,23,01,45,12.30
2009,09,23,01,46,12.30
2009,09,23,01,47,12.30
2009,09,23,01,48,12.40
2009,09,23,01,49,12.40
2009,09,23,01,50,12.40
2009,09,23,01,51,12.50
2009,09,23,01,52,12.50
2009,09,23,01,53,12.60
2009,09,23,01,54,12.70
2009,09,23,01,55,12.70
2009,09,23,01,56,12.80
2009,09,23,01,57,12.80
2009,09,23,01,58,12.80
2009,09,23,01,59,12.80
2009,09,23,02,00,12.80
2009,09,23,02,01,12.80
2009,09,23,02,02,12.80
2009,09,23,02,03,12.80
2009,09,23,02,04,12.70
2009,09,23,02,05,12.70
2009,09,23,02,06,12.70
2009,09,23,02,07,12.70
2009,09,23,02,08,12.70
2009,09,23,02,09,12.70
2009,09,23,02,10,12.60
2009,09,23,02,11,12.60
2009,09,23,02,12,12.60
2009,09,23,02,13,12.50
2009,09,23,02,14,12.50
2009,09,23,02,15,12.50
2009,09,23,02,16,12.50
2009,09,23,02,17,12.50
2009,09,23,02,18,12.50
2009,09,23,02,19,12.50
2009,09,23,02,20,12.50
2009,09,23,02,21,12.40
2009,09,23,02,22,12.50
2009,09,23,02,23,12.50
2009,09,23,02,24,12.50
2009,09,23,02,25,12.50
2009,09,23,02,26,12.40
2009,09,23,02,27,12.40
2009,09,23,02,28,12.40
2009,09,23,02,29,12.30
2009,09,23,02,30,12.30
2009,09,23,02,31,12.30
2009,09,23,02,32,12.20
2009,09,23,02,33,12.20
2009,09,23,02,34,12.20
2009,09,23,02,35,12.20
2009,09,23,02,36,12.20
2009,09,23,02,37,12.20
2009,09,23,02,38,12.20
2009,09,23,02,39,12.20
2009,09,23,02,40,12.20
2009,09,23,02,41,12.20
2009,09,23,02,42,12.20
2009,09,23,02,43,12.10
2009,09,23,02,44,12.10
2009,09,23,02,45,12.10
2009,09,23,02,46,12.00
2009,09,23,02,47,12.00
2009,09,23,02,48,12.00
2009,09,23,02,49,12.00
2009,09,23,02,50,12.00
2009,09,23,02,51,12.00
2009,09,23,02,52,12.00
2009,09,23,02,53,11.90
2009,09,23,02,54,12.00
2009,09,23,02,55,12.00
2009,09,23,02,56,12.00
2009,09,23,02,57,12.10
2009,09,23,02,58,12.10
2009,09,23,02,59,12.10
2009,09,23,03,00,12.00
2009,09,23,03,01,12.00
2009,09,23,03,02,12.00
2009,09,23,03,03,12.00
2009,09,23,03,04,12.00
2009,09,23,03,05,12.00
2009,09,23,03,06,12.10
2009,09,23,03,07,12.10
2009,09,23,03,08,12.20
2009,09,23,03,09,12.30
2009,09,23,03,10,12.30
2009,09,23,03,11,12.40
2009,09,23,03,12,12.40
2009,09,23,03,13,12.50
2009,09,23,03,14,12.50
2009,09,23,03,15,12.40
2009,09,23,03,16,12.40
2009,09,23,03,17,12.40
2009,09,23,03,18,12.30
2009,09,23,03,19,12.30
2009,09,23,03,20,12.30
2009,09,23,03,21,12.20
2009,09,23,03,22,12.20
2009,09,23,03,23,12.20
2009,09,23,03,24,12.10
2009,09,23,03,25,12.10
2009,09,23,03,26,12.10
2009,09,23,03,27,12.10
2009,09,23,03,28,12.10
2009,09,23,03,29,12.10
2009,09,23,03,30,12.10
2009,09,23,03,31,12.00
2009,09,23,03,32,12.00
2009,09,23,03,33,11.90
2009,09,23,03,34,11.90
2009,09,23,03,35,11.80
2009,09,23,03,36,11.80
2009,09,23,03,37,11.80
2009,09,23,03,38,11.80
2009,09,23,03,39,11.70
2009,09,23,03,40,11.70
2009,09,23,03,41,11.70
2009,09,23,03,42,11.70
2009,09,23,03,43,11.70
2009,09,23,03,44,11.60
2009,09,23,03,45,11.60
2009,09,23,03,46,11.60
2009,09,23,03,47,11.60
2009,09,23,03,48,11.60
2009,09,23,03,49,11.60
2009,09,23,03,50,11.60
2009,09,23,03,51,11.60
2009,09,23,03,52,11.70
2009,09,23,03,53,11.70
2009,09,23,03,54,11.70
2009,09,23,03,55,11.70
2009,09,23,03,56,11.70
2009,09,23,03,57,11.70
2009,09,23,03,58,11.60
2009,09,23,03,59,11.60
2009,09,23,04,00,11.60
2009,09,23,04,01,11.60
2009,09,23,04,02,11.60
2009,09,23,04,03,11.60
2009,09,23,04,04,11.60
2009,09,23,04,05,11.60
2009,09,23,04,06,11.60
2009,09,23,04,07,11.60
2009,09,23,04,08,11.60
2009,09,23,04,09,11.60
2009,09,23,04,10,11.60
2009,09,23,04,11,11.60
2009,09,23,04,12,11.60
2009,09,23,04,13,11.70
2009,09,23,04,14,11.70
2009,09,23,04,15,11.70
2009,09,23,04,16,11.70
2009,09,23,04,17,11.70
2009,09,23,04,18,11.70
2009,09,23,04,19,11.70
2009,09,23,04,20,11.70
2009,09,23,04,21,11.70
2009,09,23,04,22,11.70
2009,09,23,04,23,11.70
2009,09,23,04,24,11.70
2009,09,23,04,25,11.60
2009,09,23,04,26,11.60
2009,09,23,04,27,11.60
2009,09,23,04,28,11.60
2009,09,23,04,29,11.60
2009,09,23,04,30,11.60
2009,09,23,04,31,11.60
2009,09,23,04,32,11.60
2009,09,23,04,33,11.60
2009,09,23,04,34,11.60
2009,09,23,04,35,11.50
2009,09,23,04,36,11.40
2009,09,23,04,37,11.40
2009,09,23,04,38,11.40
2009,09,23,04,39,11.40
2009,09,23,04,40,11.40
2009,09,23,04,41,11.40
2009,09,23,04,42,11.40
2009,09,23,04,43,11.40
2009,09,23,04,44,11.40
2009,09,23,04,45,11.40
2009,09,23,04,46,11.30
2009,09,23,04,47,11.20
2009,09,23,04,48,11.20
2009,09,23,04,49,11.10
2009,09,23,04,50,11.10
2009,09,23,04,51,11.00
2009,09,23,04,52,10.90
2009,09,23,04,53,10.90
2009,09,23,04,54,10.90
2009,09,23,04,55,10.90
2009,09,23,04,56,10.90
2009,09,23,04,57,10.90
2009,09,23,04,58,10.90
2009,09,23,04,59,10.90
2009,09,23,05,00,11.10
2009,09,23,05,01,11.10
2009,09,23,05,02,11.10
2009,09,23,05,03,11.10
2009,09,23,05,04,11.10
2009,09,23,05,05,11.00
2009,09,23,05,06,10.90
2009,09,23,05,07,10.90
2009,09,23,05,08,10.90
2009,09,23,05,09,10.90
2009,09,23,05,10,10.90
2009,09,23,05,11,10.90
2009,09,23,05,12,10.90
2009,09,23,05,13,10.90
2009,09,23,05,14,10.90
2009,09,23,05,15,10.90
2009,09,23,05,16,10.90
2009,09,23,05,17,10.90
2009,09,23,05,18,10.90
2009,09,23,05,19,10.90
2009,09,23,05,20,10.90
2009,09,23,05,21,11.00
2009,09,23,05,22,11.10
2009,09,23,05,23,11.10
2009,09,23,05,24,11.10
2009,09,23,05,25,11.10
2009,09,23,05,26,11.10
2009,09,23,05,27,11.10
2009,09,23,05,28,11.10
2009,09,23,05,29,11.10
2009,09,23,05,30,11.10
2009,09,23,05,31,11.10
2009,09,23,05,32,11.10
2009,09,23,05,33,11.10
2009,09,23,05,34,11.10
2009,09,23,05,35,11.10
2009,09,23,05,36,10.90
2009,09,23,05,37,10.90
2009,09,23,05,38,10.90
2009,09,23,05,39,10.90
2009,09,23,05,40,10.90
2009,09,23,05,41,10.90
2009,09,23,05,42,10.90
2009,09,23,05,43,10.80
2009,09,23,05,44,10.80
2009,09,23,05,45,10.80
2009,09,23,05,46,10.80
2009,09,23,05,47,10.80
2009,09,23,05,48,10.80
2009,09,23,05,49,10.80
2009,09,23,05,50,10.80
2009,09,23,05,51,10.80
2009,09,23,05,52,10.70
2009,09,23,05,53,10.70
2009,09,23,05,54,10.70
2009,09,23,05,55,10.70
2009,09,23,05,56,10.70
2009,09,23,05,57,10.70
2009,09,23,05,58,10.70
2009,09,23,05,59,10.80
2009,09,23,06,00,10.80
2009,09,23,06,01,10.90
2009,09,23,06,02,10.90
2009,09,23,06,03,10.90
2009,09,23,06,04,10.90
2009,09,23,06,05,10.90
2009,09,23,06,06,10.90
2009,09,23,06,07,10.90
2009,09,23,06,08,11.10
2009,09,23,06,09,11.10
2009,09,23,06,10,11.10
2009,09,23,06,11,11.00
2009,09,23,06,12,10.90
2009,09,23,06,13,10.90
2009,09,23,06,14,10.90
2009,09,23,06,15,10.90
2009,09,23,06,16,10.90
2009,09,23,06,17,10.90
2009,09,23,06,18,10.90
2009,09,23,06,19,10.90
2009,09,23,06,20,10.90
2009,09,23,06,21,10.90
2009,09,23,06,22,10.90
2009,09,23,06,23,10.90
2009,09,23,06,24,10.90
2009,09,23,06,25,10.90
2009,09,23,06,26,10.90
2009,09,23,06,27,10.90
2009,09,23,06,28,10.90
2009,09,23,06,29,10.90
2009,09,23,06,30,10.90
2009,09,23,06,31,10.80
2009,09,23,06,32,10.80
2009,09,23,06,33,10.80
2009,09,23,06,34,10.70
2009,09,23,06,35,10.70
2009,09,23,06,36,10.70
2009,09,23,06,37,10.70
2009,09,23,06,38,10.60
2009,09,23,06,39,10.60
2009,09,23,06,40,10.60
2009,09,23,06,41,10.60
2009,09,23,06,42,10.60
2009,09,23,06,43,10.50
2009,09,23,06,44,10.50
2009,09,23,06,45,10.60
2009,09,23,06,46,10.60
2009,09,23,06,47,10.60
2009,09,23,06,48,10.60
2009,09,23,06,49,10.60
2009,09,23,06,50,10.60
2009,09,23,06,51,10.60
2009,09,23,06,52,10.60
2009,09,23,06,53,10.60
2009,09,23,06,54,10.60
2009,09,23,06,55,10.60
2009,09,23,06,56,10.60
2009,09,23,06,57,10.60
2009,09,23,06,58,10.60
2009,09,23,06,59,10.60
2009,09,23,07,00,10.60
2009,09,23,07,01,10.60
2009,09,23,07,02,10.60
2009,09,23,07,03,10.60
2009,09,23,07,04,10.60
2009,09,23,07,05,10.60
2009,09,23,07,06,10.60
2009,09,23,07,07,10.50
2009,09,23,07,08,10.40
2009,09,23,07,09,10.40
2009,09,23,07,10,10.40
2009,09,23,07,11,10.40
2009,09,23,07,12,10.40
2009,09,23,07,13,10.50
2009,09,23,07,14,10.60
2009,09,23,07,15,10.60
2009,09,23,07,16,10.60
2009,09,23,07,17,10.60
2009,09,23,07,18,10.60
2009,09,23,07,19,10.60
2009,09,23,07,20,10.60
2009,09,23,07,21,10.60
2009,09,23,07,22,10.60
2009,09,23,07,23,10.60
2009,09,23,07,24,10.60
2009,09,23,07,25,10.60
2009,09,23,07,26,10.70
2009,09,23,07,27,10.70
2009,09,23,07,28,10.70
2009,09,23,07,29,10.70
2009,09,23,07,30,10.70
2009,09,23,07,31,10.70
2009,09,23,07,32,10.70
2009,09,23,07,33,10.70
2009,09,23,07,34,10.70
2009,09,23,07,35,10.70
2009,09,23,07,36,10.70
2009,09,23,07,37,10.70
2009,09,23,07,38,10.70
2009,09,23,07,39,10.70
2009,09,23,07,40,10.70
2009,09,23,07,41,10.80
2009,09,23,07,42,10.80
2009,09,23,07,43,10.80
2009,09,23,07,44,10.80
2009,09,23,07,45,10.80
2009,09,23,07,46,10.80
2009,09,23,07,47,10.90
2009,09,23,07,48,10.90
2009,09,23,07,49,10.90
2009,09,23,07,50,10.90
2009,09,23,07,51,10.90
2009,09,23,07,52,10.90
2009,09,23,07,53,11.10
2009,09,23,07,54,11.10
2009,09,23,07,55,11.10
2009,09,23,07,56,11.10
2009,09,23,07,57,11.20
2009,09,23,07,58,11.20
2009,09,23,07,59,11.20
2009,09,23,08,00,11.20
2009,09,23,08,01,11.20
2009,09,23,08,02,11.30
2009,09,23,08,03,11.30
2009,09,23,08,04,11.40
2009,09,23,08,05,11.40
2009,09,23,08,06,11.40
2009,09,23,08,07,11.50
2009,09,23,08,08,11.60
2009,09,23,08,09,11.60
2009,09,23,08,10,11.60
2009,09,23,08,11,11.60
2009,09,23,08,12,11.60
2009,09,23,08,13,11.60
2009,09,23,08,14,11.60
2009,09,23,08,15,11.60
2009,09,23,08,16,11.70
2009,09,23,08,17,11.80
2009,09,23,08,18,11.90
2009,09,23,08,19,12.00
2009,09,23,08,20,12.10
2009,09,23,08,21,12.20
2009,09,23,08,22,12.30
2009,09,23,08,23,12.30
2009,09,23,08,24,12.40
2009,09,23,08,25,12.50
2009,09,23,08,26,12.60
2009,09,23,08,27,12.60
2009,09,23,08,28,12.70
2009,09,23,08,29,12.80
2009,09,23,08,30,12.80
2009,09,23,08,31,12.90
2009,09,23,08,32,12.90
2009,09,23,08,33,13.00
2009,09,23,08,34,13.10
2009,09,23,08,35,13.20
2009,09,23,08,36,13.30
2009,09,23,08,37,13.30
2009,09,23,08,38,13.30
2009,09,23,08,39,13.30
2009,09,23,08,40,13.30
2009,09,23,08,41,13.40
2009,09,23,08,42,13.40
2009,09,23,08,43,13.40
2009,09,23,08,44,13.40
2009,09,23,08,45,13.40
2009,09,23,08,46,13.50
2009,09,23,08,47,13.50
2009,09,23,08,48,13.60
2009,09,23,08,49,13.70
2009,09,23,08,50,13.70
2009,09,23,08,51,13.70
2009,09,23,08,52,13.80
2009,09,23,08,53,13.80
2009,09,23,08,54,13.90
2009,09,23,08,55,13.90
2009,09,23,08,56,14.00
2009,09,23,08,57,14.00
2009,09,23,08,58,14.10
2009,09,23,08,59,14.20
2009,09,23,09,00,14.20
2009,09,23,09,01,14.20
2009,09,23,09,02,14.20
2009,09,23,09,03,14.20
2009,09,23,09,04,14.20
2009,09,23,09,05,14.20
2009,09,23,09,06,14.20
2009,09,23,09,07,14.20
2009,09,23,09,08,14.30
2009,09,23,09,09,14.30
2009,09,23,09,10,14.40
2009,09,23,09,11,14.40
2009,09,23,09,12,14.50
2009,09,23,09,13,14.60
2009,09,23,09,14,14.60
2009,09,23,09,15,14.70
2009,09,23,09,16,14.70
2009,09,23,09,17,14.80
2009,09,23,09,18,14.90
2009,09,23,09,19,15.00
2009,09,23,09,20,15.00
2009,09,23,09,21,15.10
2009,09,23,09,22,15.20
2009,09,23,09,23,15.30
2009,09,23,09,24,15.30
2009,09,23,09,25,15.40
2009,09,23,09,26,15.50
2009,09,23,09,27,15.50
2009,09,23,09,28,15.60
2009,09,23,09,29,15.70
2009,09,23,09,30,15.70
2009,09,23,09,31,15.80
2009,09,23,09,32,15.90
2009,09,23,09,33,16.10
2009,09,23,09,34,16.10
2009,09,23,09,35,16.20
2009,09,23,09,36,16.30
2009,09,23,09,37,16.40
2009,09,23,09,38,16.40
2009,09,23,09,39,16.50
2009,09,23,09,40,16.60
2009,09,23,09,41,16.70
2009,09,23,09,42,16.80
2009,09,23,09,43,16.90
2009,09,23,09,44,17.00
2009,09,23,09,45,17.10
2009,09,23,09,46,17.20
2009,09,23,09,47,17.30
2009,09,23,09,48,17.40
2009,09,23,09,49,17.50
2009,09,23,09,50,17.70
2009,09,23,09,51,17.80
2009,09,23,09,52,17.90
2009,09,23,09,53,18.00
2009,09,23,09,54,18.10
2009,09,23,09,55,18.20
2009,09,23,09,56,18.20
2009,09,23,09,57,18.30
2009,09,23,09,58,18.40
2009,09,23,09,59,18.50
2009,09,23,10,00,18.60
2009,09,23,10,01,18.60
2009,09,23,10,02,18.70
2009,09,23,10,03,18.70
2009,09,23,10,04,18.80
2009,09,23,10,05,18.80
2009,09,23,10,06,18.80
2009,09,23,10,07,18.80
2009,09,23,10,08,18.90
2009,09,23,10,09,18.90
2009,09,23,10,10,18.90
2009,09,23,10,11,18.90
2009,09,23,10,12,18.90
2009,09,23,10,13,18.80
2009,09,23,10,14,18.80
2009,09,23,10,15,18.70
2009,09,23,10,16,18.70
2009,09,23,10,17,18.70
2009,09,23,10,18,18.60
2009,09,23,10,19,18.50
2009,09,23,10,20,18.40
2009,09,23,10,21,18.30
2009,09,23,10,22,18.30
2009,09,23,10,23,18.30
2009,09,23,10,24,18.30
2009,09,23,10,25,18.40
2009,09,23,10,26,18.40
2009,09,23,10,27,18.40
2009,09,23,10,28,18.40
2009,09,23,10,29,18.50
2009,09,23,10,30,18.50
2009,09,23,10,31,18.50
2009,09,23,10,32,18.50
2009,09,23,10,33,18.50
2009,09,23,10,34,18.40
2009,09,23,10,35,18.40
2009,09,23,10,36,18.40
2009,09,23,10,37,18.50
2009,09,23,10,38,18.50
2009,09,23,10,39,18.60
2009,09,23,10,40,18.60
2009,09,23,10,41,18.70
2009,09,23,10,42,18.70
2009,09,23,10,43,18.80
2009,09,23,10,44,18.90
2009,09,23,10,45,18.90
2009,09,23,10,46,19.10
2009,09,23,10,47,19.10
2009,09,23,10,48,19.10
2009,09,23,10,49,19.30
2009,09,23,10,50,19.30
2009,09,23,10,51,19.40
2009,09,23,10,52,19.50
2009,09,23,10,53,19.60
2009,09,23,10,54,19.70
2009,09,23,10,55,19.80
2009,09,23,10,56,19.90
2009,09,23,10,57,20.00
2009,09,23,10,58,20.20
2009,09,23,10,59,20.20
2009,09,23,11,00,20.40
2009,09,23,11,01,20.50
2009,09,23,11,02,20.60
2009,09,23,11,03,20.60
2009,09,23,11,04,20.70
2009,09,23,11,05,20.80
2009,09,23,11,06,20.90
2009,09,23,11,07,21.00
2009,09,23,11,08,21.20
2009,09,23,11,09,21.30
2009,09,23,11,10,21.40
2009,09,23,11,11,21.50
2009,09,23,11,12,21.60
2009,09,23,11,13,21.60
2009,09,23,11,14,21.60
2009,09,23,11,15,21.60
2009,09,23,11,16,21.60
2009,09,23,11,17,21.60
2009,09,23,11,18,21.60
2009,09,23,11,19,21.70
2009,09,23,11,20,21.60
2009,09,23,11,21,21.60
2009,09,23,11,22,21.60
2009,09,23,11,23,21.60
2009,09,23,11,24,21.60
2009,09,23,11,25,21.70
2009,09,23,11,26,21.70
2009,09,23,11,27,21.70
2009,09,23,11,28,21.80
2009,09,23,11,29,21.70
2009,09,23,11,30,21.70
2009,09,23,11,31,21.70
2009,09,23,11,32,21.70
2009,09,23,11,33,21.70
2009,09,23,11,34,21.80
2009,09,23,11,35,21.80
2009,09,23,11,36,21.70
2009,09,23,11,37,21.70
2009,09,23,11,38,21.70
2009,09,23,11,39,21.70
2009,09,23,11,40,21.80
2009,09,23,11,41,21.80
2009,09,23,11,42,21.90
2009,09,23,11,43,22.00
2009,09,23,11,44,22.10
2009,09,23,11,45,22.10
2009,09,23,11,46,22.20
2009,09,23,11,47,22.20
2009,09,23,11,48,22.20
2009,09,23,11,49,22.20
2009,09,23,11,50,22.30
2009,09,23,11,51,22.40
2009,09,23,11,52,22.50
2009,09,23,11,53,22.60
2009,09,23,11,54,22.70
2009,09,23,11,55,22.70
2009,09,23,11,56,22.80
2009,09,23,11,57,22.80
2009,09,23,11,58,22.80
2009,09,23,11,59,22.80
2009,09,23,12,00,22.80
2009,09,23,12,01,22.80
2009,09,23,12,02,22.70
2009,09,23,12,03,22.70
2009,09,23,12,04,22.70
2009,09,23,12,05,22.80
2009,09,23,12,06,22.80
2009,09,23,12,07,22.90
2009,09,23,12,08,22.90
2009,09,23,12,09,23.00
2009,09,23,12,10,23.10
2009,09,23,12,11,23.20
2009,09,23,12,12,23.30
2009,09,23,12,13,23.30
2009,09,23,12,14,23.30
2009,09,23,12,15,23.30
2009,09,23,12,16,23.30
2009,09,23,12,17,23.30
2009,09,23,12,18,23.30
2009,09,23,12,19,23.30
2009,09,23,12,20,23.30
2009,09,23,12,21,23.30
2009,09,23,12,22,23.30
2009,09,23,12,23,23.30
2009,09,23,12,24,23.30
2009,09,23,12,25,23.40
2009,09,23,12,26,23.40
2009,09,23,12,27,23.40
2009,09,23,12,28,23.40
2009,09,23,12,29,23.40
2009,09,23,12,30,23.50
2009,09,23,12,31,23.70
2009,09,23,12,32,23.70
2009,09,23,12,33,23.70
2009,09,23,12,34,23.70
2009,09,23,12,35,23.80
2009,09,23,12,36,23.80
2009,09,23,12,37,23.80
2009,09,23,12,38,23.80
2009,09,23,12,39,23.80
2009,09,23,12,40,23.90
2009,09,23,12,41,23.90
2009,09,23,12,42,24.00
2009,09,23,12,43,24.10
2009,09,23,12,44,24.10
2009,09,23,12,45,24.10
2009,09,23,12,46,24.10
2009,09,23,12,47,24.00
2009,09,23,12,48,24.00
2009,09,23,12,49,24.00
2009,09,23,12,50,24.10
2009,09,23,12,51,24.10
2009,09,23,12,52,24.10
2009,09,23,12,53,24.10
2009,09,23,12,54,24.10
2009,09,23,12,55,24.10
2009,09,23,12,56,24.20
2009,09,23,12,57,24.30
2009,09,23,12,58,24.30
2009,09,23,12,59,24.10
2009,09,23,13,00,24.10
2009,09,23,13,01,24.10
2009,09,23,13,02,24.10
2009,09,23,13,03,24.10
2009,09,23,13,04,24.10
2009,09,23,13,05,24.20
2009,09,23,13,06,24.20
2009,09,23,13,07,24.10
2009,09,23,13,08,24.10
2009,09,23,13,09,24.00
2009,09,23,13,10,23.90
2009,09,23,13,11,23.70
2009,09,23,13,12,23.70
2009,09,23,13,13,23.60
2009,09,23,13,14,23.50
2009,09,23,13,15,23.40
2009,09,23,13,16,23.40
2009,09,23,13,17,23.50
2009,09,23,13,18,23.60
2009,09,23,13,19,23.60
2009,09,23,13,20,23.60
2009,09,23,13,21,23.50
2009,09,23,13,22,23.40
2009,09,23,13,23,23.30
2009,09,23,13,24,23.30
2009,09,23,13,25,23.30
2009,09,23,13,26,23.30
2009,09,23,13,27,23.30
2009,09,23,13,28,23.30
2009,09,23,13,29,23.30
2009,09,23,13,30,23.40
2009,09,23,13,31,23.40
2009,09,23,13,32,23.40
2009,09,23,13,33,23.40
2009,09,23,13,34,23.40
2009,09,23,13,35,23.30
2009,09,23,13,36,23.20
2009,09,23,13,37,23.10
2009,09,23,13,38,23.10
2009,09,23,13,39,23.10
2009,09,23,13,40,23.10
2009,09,23,13,41,23.00
2009,09,23,13,42,22.90
2009,09,23,13,43,23.00
2009,09,23,13,44,23.10
2009,09,23,13,45,23.20
2009,09,23,13,46,23.20
2009,09,23,13,47,23.30
2009,09,23,13,48,23.30
2009,09,23,13,49,23.40
2009,09,23,13,50,23.40
2009,09,23,13,51,23.40
2009,09,23,13,52,23.30
2009,09,23,13,53,23.30
2009,09,23,13,54,23.30
2009,09,23,13,55,23.30
2009,09,23,13,56,23.30
2009,09,23,13,57,23.40
2009,09,23,13,58,23.40
2009,09,23,13,59,23.30
2009,09,23,14,00,23.30
2009,09,23,14,01,23.30
2009,09,23,14,02,23.20
2009,09,23,14,03,23.10
2009,09,23,14,04,23.10
2009,09,23,14,05,23.10
2009,09,23,14,06,23.10
2009,09,23,14,07,23.10
2009,09,23,14,08,23.10
2009,09,23,14,09,23.20
2009,09,23,14,10,23.20
2009,09,23,14,11,23.20
2009,09,23,14,12,23.20
2009,09,23,14,13,23.20
2009,09,23,14,14,23.10
2009,09,23,14,15,23.20
2009,09,23,14,16,23.20
2009,09,23,14,17,23.30
2009,09,23,14,18,23.30
2009,09,23,14,19,23.30
2009,09,23,14,20,23.30
2009,09,23,14,21,23.40
2009,09,23,14,22,23.50
2009,09,23,14,23,23.50
2009,09,23,14,24,23.40
2009,09,23,14,25,23.40
2009,09,23,14,26,23.40
2009,09,23,14,27,23.40
2009,09,23,14,28,23.40
2009,09,23,14,29,23.40
2009,09,23,14,30,23.40
2009,09,23,14,31,23.40
2009,09,23,14,32,23.50
2009,09,23,14,33,23.60
2009,09,23,14,34,23.60
2009,09,23,14,35,23.60
2009,09,23,14,36,23.60
2009,09,23,14,37,23.60
2009,09,23,14,38,23.60
2009,09,23,14,39,23.60
2009,09,23,14,40,23.60
2009,09,23,14,41,23.50
2009,09,23,14,42,23.40
2009,09,23,14,43,23.40
2009,09,23,14,44,23.40
2009,09,23,14,45,23.50
2009,09,23,14,46,23.60
2009,09,23,14,47,23.60
2009,09,23,14,48,23.60
2009,09,23,14,49,23.60
2009,09,23,14,50,23.60
2009,09,23,14,51,23.60
2009,09,23,14,52,23.60
2009,09,23,14,53,23.50
2009,09,23,14,54,23.40
2009,09,23,14,55,23.30
2009,09,23,14,56,23.40
2009,09,23,14,57,23.40
2009,09,23,14,58,23.40
2009,09,23,14,59,23.40
2009,09,23,15,00,23.40
2009,09,23,15,01,23.40
2009,09,23,15,02,23.40
2009,09,23,15,03,23.40
2009,09,23,15,04,23.30
2009,09,23,15,05,23.30
2009,09,23,15,06,23.40
2009,09,23,15,07,23.40
2009,09,23,15,08,23.50
2009,09,23,15,09,23.60
2009,09,23,15,10,23.70
2009,09,23,15,11,23.70
2009,09,23,15,12,23.70
2009,09,23,15,13,23.70
2009,09,23,15,14,23.60
2009,09,23,15,15,23.60
2009,09,23,15,16,23.60
2009,09,23,15,17,23.60
2009,09,23,15,18,23.50
2009,09,23,15,19,23.50
2009,09,23,15,20,23.60
2009,09,23,15,21,23.60
2009,09,23,15,22,23.60
2009,09,23,15,23,23.70
2009,09,23,15,24,23.70
2009,09,23,15,25,23.70
2009,09,23,15,26,23.70
2009,09,23,15,27,23.80
2009,09,23,15,28,23.90
2009,09,23,15,29,23.90
2009,09,23,15,30,24.00
2009,09,23,15,31,24.10
2009,09,23,15,32,24.10
2009,09,23,15,33,24.00
2009,09,23,15,34,23.90
2009,09,23,15,35,23.80
2009,09,23,15,36,23.70
2009,09,23,15,37,23.70
2009,09,23,15,38,23.70
2009,09,23,15,39,23.60
2009,09,23,15,40,23.60
2009,09,23,15,41,23.60
2009,09,23,15,42,23.60
2009,09,23,15,43,23.60
2009,09,23,15,44,23.60
2009,09,23,15,45,23.60
2009,09,23,15,46,23.60
2009,09,23,15,47,23.60
2009,09,23,15,48,23.40
2009,09,23,15,49,23.40
2009,09,23,15,50,23.30
2009,09,23,15,51,23.30
2009,09,23,15,52,23.20
2009,09,23,15,53,23.00
2009,09,23,15,54,22.90
2009,09,23,15,55,22.90
2009,09,23,15,56,22.90
2009,09,23,15,57,22.90
2009,09,23,15,58,22.90
2009,09,23,15,59,22.80
2009,09,23,16,00,22.80
2009,09,23,16,01,22.80
2009,09,23,16,02,22.90
2009,09,23,16,03,22.90
2009,09,23,16,04,22.90
2009,09,23,16,05,22.90
2009,09,23,16,06,22.90
2009,09,23,16,07,22.90
2009,09,23,16,08,22.90
2009,09,23,16,09,22.90
2009,09,23,16,10,22.90
2009,09,23,16,11,22.90
2009,09,23,16,12,22.90
2009,09,23,16,13,23.00
2009,09,23,16,14,23.10
2009,09,23,16,15,23.10
2009,09,23,16,16,23.20
2009,09,23,16,17,23.20
2009,09,23,16,18,23.30
2009,09,23,16,19,23.30
2009,09,23,16,20,23.40
2009,09,23,16,21,23.50
2009,09,23,16,22,23.60
2009,09,23,16,23,23.70
2009,09,23,16,24,23.70
2009,09,23,16,25,23.70
2009,09,23,16,26,23.80
2009,09,23,16,27,23.80
2009,09,23,16,28,23.90
2009,09,23,16,29,24.00
2009,09,23,16,30,24.10
2009,09,23,16,31,24.10
2009,09,23,16,32,24.10
2009,09,23,16,33,24.20
2009,09,23,16,34,24.30
2009,09,23,16,35,24.40
2009,09,23,16,36,24.50
2009,09,23,16,37,24.60
2009,09,23,16,38,24.70
2009,09,23,16,39,24.90
2009,09,23,16,40,24.90
2009,09,23,16,41,25.00
2009,09,23,16,42,25.10
2009,09,23,16,43,25.10
2009,09,23,16,44,25.20
2009,09,23,16,45,25.30
2009,09,23,16,46,25.40
2009,09,23,16,47,25.50
2009,09,23,16,48,25.60
2009,09,23,16,49,25.70
2009,09,23,16,50,25.90
2009,09,23,16,51,26.20
2009,09,23,16,52,26.50
2009,09,23,16,53,26.70
2009,09,23,16,54,27.00
2009,09,23,16,55,27.30
2009,09,23,16,56,27.40
2009,09,23,16,57,27.50
2009,09,23,16,58,27.60
2009,09,23,16,59,27.70
2009,09,23,17,00,27.80
2009,09,23,17,01,27.90
2009,09,23,17,02,27.90
2009,09,23,17,03,27.90
2009,09,23,17,04,27.90
2009,09,23,17,05,27.90
2009,09,23,17,06,27.90
2009,09,23,17,07,28.00
2009,09,23,17,08,28.00
2009,09,23,17,09,27.90
2009,09,23,17,10,27.90
2009,09,23,17,11,27.80
2009,09,23,17,12,27.80
2009,09,23,17,13,27.80
2009,09,23,17,14,27.80
2009,09,23,17,15,27.80
2009,09,23,17,16,27.80
2009,09,23,17,17,27.90
2009,09,23,17,18,27.90
2009,09,23,17,19,27.90